Weather History for Sisters Island, BC

Change the Weather History Date:

Monday, September 23, 2013

  Actual Average Record
Temperature  
Mean Temperature 56 °F -  
Max Temperature 58 °F - - ()
Min Temperature 54 °F - - ()
Degree Days  
Heating Degree Days 9    
Growing Degree Days 6 (Base 50)    
Moisture  
Dew Point 45 °F    
Average Humidity 64    
Maximum Humidity 74    
Minimum Humidity 48    
Precipitation  
Precipitation 0.00 in - - ()
Sea Level Pressure  
Sea Level Pressure 29.78 in    
Wind  
Wind Speed 13 mph ()    
Max Wind Speed 23 mph    
Max Gust Speed -    
T = Trace of Precipitation, MM = Missing Value Source: Averaged Metar Reports

Daily Weather History Graph

Daily Weather History Graph

Search for Another Location

Airport:

Trip Planner

Search our weather history database for the weather conditions in past years. The results will help you decide how hot, cold, wet, or windy it might be!

Date:

Astronomy

Sep. 23, 2013 Rise Set
Actual Time 7:06 AM PDT 7:12 PM PDT
Civil Twilight 6:34 AM PDT 7:44 PM PDT
Nautical Twilight 5:56 AM PDT 8:22 PM PDT
Astronomical Twilight 5:17 AM PDT 9:00 PM PDT
Moon 9:22 PM PDT (9/23) 11:56 AM PDT (9/23)
Length of Visible Light 13h 10m
Length of Day
12h 06m
Waning Gibbous, 80% of the Moon is Illuminated
Sep 23
Waning Gibbous
Sep 26
Last Quarter
Oct 4
New
Oct 11
First Quarter
Oct 18
Full

Hourly Weather History & Observations

Time (PDT) Temp. Dew Point Humidity Pressure Visibility Wind Dir Wind Speed Gust Speed Precip Events Conditions
12:00 AM 58.3 °F 45.5 °F 62% 29.60 in - WSW 15.0 mph - N/A   Unknown
1:00 AM 58.1 °F 45.7 °F 63% 29.62 in - South 4.6 mph - N/A   Unknown
2:00 AM 57.0 °F 46.2 °F 67% 29.63 in - SW 16.1 mph - N/A   Unknown
3:00 AM 56.8 °F 45.9 °F 67% 29.65 in - South 10.4 mph - N/A   Unknown
4:00 AM 55.4 °F 45.1 °F 68% 29.66 in - SW 11.5 mph - N/A   Unknown
5:00 AM 55 °F 46 °F 64% 29.67 in - WSW 11.5 mph - -  
5:00 AM 54.7 °F 46.4 °F 74% 29.67 in - WSW 11.5 mph - N/A   Unknown
6:00 AM 55.9 °F 45.3 °F 68% 29.68 in - SW 10.4 mph - N/A   Unknown
7:00 AM 56.8 °F 43.7 °F 61% 29.70 in - SSW 12.7 mph - N/A   Unknown
8:00 AM 56.7 °F 42.8 °F 60% 29.73 in - SW 15.0 mph - N/A   Unknown
9:00 AM 56.3 °F 43.3 °F 62% 29.75 in - SW 11.5 mph - N/A   Unknown
10:00 AM 55.8 °F 45.9 °F 69% 29.77 in - SW 15.0 mph - N/A   Unknown
11:00 AM 55 °F 46 °F 64% 29.78 in - SW 23.0 mph - -  
11:00 AM 55.4 °F 46.2 °F 71% 29.78 in - SW 23.0 mph - N/A   Unknown
12:00 PM 57.0 °F 44.8 °F 64% 29.80 in - WSW 16.1 mph - N/A   Unknown
1:00 PM 58.1 °F 44.6 °F 61% 29.82 in - SW 9.2 mph - N/A   Unknown
2:00 PM 57.7 °F 42.1 °F 56% 29.82 in - SW 20.7 mph - N/A   Unknown
3:00 PM 57.2 °F 42.8 °F 59% 29.82 in - SW 20.7 mph - N/A   Unknown
4:00 PM 56.8 °F 46.4 °F 68% 29.86 in - South 12.7 mph - N/A   Unknown
5:00 PM 58 °F 44 °F 48% 29.86 in - SW 16.1 mph - -  
5:00 PM 57.7 °F 43.5 °F 59% 29.86 in - SW 16.1 mph - N/A   Unknown
6:00 PM 57.9 °F 42.3 °F 56% 29.86 in - SW 20.7 mph - N/A   Unknown
7:00 PM 57.2 °F 42.8 °F 59% 29.86 in - SW 19.6 mph - N/A   Unknown
8:00 PM 55.9 °F 44.8 °F 66% 29.87 in - WSW 19.6 mph - N/A   Unknown
9:00 PM 55.4 °F 45.7 °F 70% 29.88 in - WSW 18.4 mph - N/A   Unknown
10:00 PM 54.3 °F 45.5 °F 72% 29.90 in - SW 16.1 mph - N/A   Unknown
11:00 PM 54 °F 46 °F 65% 29.90 in - SW 12.7 mph - -  
11:00 PM 54.1 °F 45.5 °F 73% 29.90 in - SW 12.7 mph - N/A   Unknown